Location: Hamburg
(53.5500°N, 10.0000°E)
Time: 18:20:16
(UTC+02:00)

A-11 Canister half - All Passes

Search period start: 23 September 2014 00:00
Search period end: 03 October 2014 00:00
Orbit: 1525 x 1684 km, 47.3° (Epoch: 21 September)

Date Brightness Start Highest point End Pass type
(mag) Time Alt. Az. Time Alt. Az. Time Alt. Az.
23 Sep - 01:33:41 10° W 01:42:26 41° SSW 01:51:26 10° SE visible
23 Sep - 03:39:57 10° W 03:45:26 17° SW 03:51:00 10° SSW night (unlit)
23 Sep - 19:01:53 10° S 19:09:13 27° SE 19:16:40 10° E daylight
23 Sep - 21:03:42 10° SW 21:12:39 52° SSE 21:21:52 10° E visible
23 Sep - 23:07:38 10° W 23:16:53 60° S 23:26:27 10° ESE visible
24 Sep - 01:12:11 10° W 01:20:57 42° SSW 01:29:59 10° SE visible
24 Sep - 03:18:15 10° W 03:24:00 18° SW 03:29:51 10° SSW night (unlit)
24 Sep - 18:40:37 10° S 18:47:47 26° SE 18:55:04 10° E daylight
24 Sep - 20:42:16 10° SW 20:51:10 51° SSE 21:00:20 10° E visible
24 Sep - 22:46:09 10° W 22:55:23 61° S 23:04:56 10° ESE visible
25 Sep - 00:50:40 10° W 00:59:28 43° SSW 01:08:32 10° SE visible
25 Sep - 02:56:35 10° W 03:02:34 18° SW 03:08:40 10° S visible
25 Sep - 18:19:21 10° S 18:26:21 25° SE 18:33:28 10° E daylight
25 Sep - 20:20:50 10° SW 20:29:41 50° SSE 20:38:48 10° E visible
25 Sep - 22:24:40 10° W 22:33:53 61° S 22:43:24 10° ESE visible
26 Sep - 00:29:09 10° W 00:37:59 44° SSW 00:47:05 10° SE visible
26 Sep - 02:34:55 10° W 02:41:08 19° SW 02:47:28 10° S visible
26 Sep - 17:58:06 10° S 18:04:56 24° SE 18:11:51 10° E daylight
26 Sep - 19:59:24 10° SW 20:08:12 49° SSE 20:17:15 10° E visible
26 Sep - 22:03:11 10° WSW 22:12:22 61° S 22:21:52 10° ESE visible
27 Sep - 00:07:39 10° W 00:16:30 45° SSW 00:25:37 10° SE visible
27 Sep - 02:13:17 10° W 02:19:42 20° SW 02:26:15 10° S visible
27 Sep - 17:36:52 10° S 17:43:30 23° SE 17:50:14 10° E daylight
27 Sep - 19:37:58 10° SW 19:46:44 48° SSE 19:55:43 10° E visible
27 Sep - 21:41:42 10° WSW 21:50:52 61° S 22:00:20 10° ESE visible
27 Sep - 23:46:09 10° W 23:55:01 46° SSW 00:04:09 10° SE visible
28 Sep - 01:51:40 10° W 01:58:16 21° SW 02:05:00 10° S visible
28 Sep - 17:15:38 10° S 17:22:05 22° SE 17:28:36 10° E daylight
28 Sep - 19:16:33 10° SW 19:25:16 47° SSE 19:34:11 10° E daylight
28 Sep - 21:20:13 10° WSW 21:29:22 61° S 21:38:49 10° ESE visible
28 Sep - 23:24:39 10° W 23:33:32 47° SSW 23:42:41 10° SE visible
29 Sep - 01:30:03 10° W 01:36:50 22° SW 01:43:45 10° S visible
29 Sep - 16:54:26 10° S 17:00:40 21° SE 17:06:58 10° E daylight
29 Sep - 18:55:08 10° SW 19:03:47 46° SSE 19:12:38 10° E daylight
29 Sep - 20:58:44 10° WSW 21:07:52 61° S 21:17:17 10° ESE visible
29 Sep - 23:03:09 10° W 23:12:03 48° SSW 23:21:13 10° SE visible
30 Sep - 01:08:28 10° W 01:15:23 23° SW 01:22:28 10° S visible
30 Sep - 16:33:15 10° S 16:39:16 20° SE 16:45:19 10° E daylight
30 Sep - 18:33:43 10° SW 18:42:19 45° SSE 18:51:06 10° E daylight
30 Sep - 20:37:15 10° WSW 20:46:23 61° S 20:55:46 10° ESE visible
30 Sep - 22:41:39 10° W 22:50:34 49° SSW 22:59:44 10° SE visible
01 Oct - 00:46:53 10° W 00:53:57 24° SW 01:01:11 10° S visible
01 Oct - 16:12:05 10° S 16:17:51 19° SE 16:23:39 10° E daylight
01 Oct - 18:12:18 10° SW 18:20:51 44° SSE 18:29:34 10° E daylight
01 Oct - 20:15:47 10° WSW 20:24:53 61° S 20:34:14 10° E visible
01 Oct - 22:20:09 10° W 22:29:04 50° SSW 22:38:16 10° SE visible
02 Oct - 00:25:18 10° W 00:32:30 25° SW 00:39:53 10° S visible
02 Oct - 15:50:56 10° SSE 15:56:26 18° SE 16:01:58 10° E daylight
02 Oct - 17:50:54 10° SW 17:59:24 42° SSE 18:08:02 10° E daylight
02 Oct - 19:54:18 10° WSW 20:03:23 60° S 20:12:42 10° E visible
02 Oct - 21:58:39 10° W 22:07:35 51° SSW 22:16:47 10° SE visible
